$DATE,$TIME,DM0600B,DM0602B,DM0604B,DM0614B,DM0616B,DM0618B,DM0624B,DM0628B,DM0630B,DM0634B,DM0606B,DM0608B,DM0610B
08/06/94,00:00:00,0,0,0,0,0,0,0,58,25,0,30,30,30
08/06/94,00:05:00,0,0,14,0,0,0,0,58,25,0,31,33,21
08/06/94,00:10:00,2,0,17,0,0,0,0,58,25,0,27,26,35
08/06/94,00:15:00,0,0,17,0,0,0,0,57,25,0,36,38,24
08/06/94,00:20:00,3,0,18,0,0,0,0,58,25,0,24,24,24
08/06/94,00:25:00,3,0,18,0,0,0,0,58,25,0,36,37,34
08/06/94,00:30:00,0,0,15,0,0,0,0,58,25,0,24,23,24
08/06/94,00:35:00,0,0,17,0,0,0,0,58,25,0,33,34,29
08/06/94,00:40:00,0,0,17,0,0,0,0,58,25,0,26,26,31
08/06/94,00:45:00,0,0,17,0,0,0,0,58,25,0,31,31,23
08/06/94,00:50:00,0,0,13,0,0,0,0,58,25,0,32,34,29
08/06/94,00:55:00,0,0,14,0,0,0,0,58,25,0,27,26,31
08/06/94,01:00:00,0,0,15,0,0,0,0,58,25,0,36,38,21
08/06/94,01:05:00,2,0,18,0,0,0,0,58,25,0,25,24,35
08/06/94,01:10:00,0,0,16,0,0,0,0,58,25,0,37,37,24
08/06/94,01:15:00,0,0,15,0,0,0,0,58,25,0,23,23,24
08/06/94,01:20:00,0,0,12,0,0,0,0,58,25,0,33,33,35
08/06/94,01:25:00,0,0,0,0,0,0,0,58,25,0,27,29,23
08/06/94,01:30:00,0,0,9,0,0,0,0,58,25,0,30,29,32
08/06/94,01:35:00,0,0,0,0,0,0,0,58,25,0,33,37,29
08/06/94,01:40:00,0,0,14,0,0,0,0,58,25,0,26,26,23
08/06/94,01:45:00,0,0,12,0,0,0,0,58,25,0,37,38,31
08/06/94,01:50:00,0,0,0,0,0,0,0,58,25,0,24,23,28
08/06/94,01:55:00,0,0,0,0,0,0,0,58,25,0,36,36,23
08/06/94,02:00:00,0,0,0,0,0,0,0,58,25,0,24,24,34
08/06/94,02:05:00,0,0,0,0,0,0,0,58,25,0,32,32,26
08/06/94,02:10:00,0,0,0,0,0,0,0,57,25,0,30,31,25
08/06/94,02:15:00,0,0,0,0,0,0,0,58,25,0,29,28,33
08/06/94,02:20:00,0,0,0,0,0,0,0,58,25,0,34,38,21
08/06/94,02:25:00,0,0,0,0,0,0,0,58,25,0,26,24,33
08/06/94,02:30:00,0,0,0,0,0,0,0,58,25,0,38,38,28
08/06/94,02:35:00,0,0,0,0,0,0,0,58,25,0,23,23,22
08/06/94,02:40:00,0,0,0,0,0,0,0,58,25,0,35,35,34
08/06/94,02:45:00,0,0,0,0,0,0,0,58,25,0,25,27,26
08/06/94,02:50:00,0,0,0,0,0,0,0,58,25,0,32,31,28
08/06/94,02:55:00,0,0,0,0,0,0,0,58,25,0,30,34,32
08/06/94,03:00:00,0,0,0,0,0,0,0,58,25,0,28,27,24
08/06/94,03:05:00,0,0,0,0,0,0,0,58,25,0,35,38,29
08/06/94,03:10:00,0,0,0,0,0,0,0,58,25,0,25,23,30
08/06/94,03:15:00,0,0,0,0,0,0,0,58,25,0,37,37,21
08/06/94,03:20:00,0,0,0,0,0,0,0,58,25,0,23,23,33
08/06/94,03:25:00,0,0,0,0,0,0,0,58,25,0,34,32,28
08/06/94,03:30:00,0,0,0,0,0,0,0,58,25,0,26,31,23
08/06/94,03:35:00,0,0,0,0,0,0,0,58,25,0,31,29,35
08/06/94,03:40:00,0,0,0,0,0,0,0,58,25,0,31,36,23
08/06/94,03:45:00,0,0,0,0,0,0,0,58,25,0,27,26,31
08/06/94,03:50:00,0,0,0,0,0,0,0,58,25,0,37,38,31
08/06/94,03:55:00,0,0,0,0,0,0,0,58,25,0,24,23,22
08/06/94,04:00:00,0,0,0,0,0,0,0,58,25,0,36,36,31
08/06/94,04:05:00,0,0,0,0,0,0,0,58,25,0,24,25,27
08/06/94,04:10:00,0,0,0,0,0,0,0,58,25,0,33,32,24
08/06/94,04:15:00,0,0,0,0,0,0,0,58,25,0,27,30,33
08/06/94,04:20:00,0,0,0,0,0,0,0,58,25,0,30,30,27
08/06/94,04:25:00,0,0,0,0,0,0,0,58,25,0,32,36,24
08/06/94,04:30:00,0,0,0,0,0,0,0,58,25,0,27,27,33
08/06/94,04:35:00,0,0,0,0,0,0,0,58,25,0,35,38,21
08/06/94,04:40:00,0,0,0,0,0,0,0,58,25,0,25,24,30
08/06/94,04:45:00,0,0,0,0,0,0,0,58,25,0,37,37,31
08/06/94,04:50:00,0,0,0,0,0,0,0,58,25,0,23,24,21
08/06/94,04:55:00,0,0,0,0,0,0,0,58,25,0,34,34,34
08/06/94,05:00:00,0,0,0,0,0,0,0,58,25,0,27,28,26
08/06/94,05:05:00,0,0,0,0,0,0,0,58,25,0,31,30,26
08/06/94,05:10:00,0,0,0,0,0,0,0,58,25,0,32,35,33
08/06/94,05:15:00,0,0,0,0,0,0,0,58,25,0,27,26,25
08/06/94,05:20:00,0,0,0,0,0,0,0,58,25,0,36,38,27
08/06/94,05:25:00,0,0,0,0,0,0,0,57,25,0,24,24,31
08/06/94,05:30:00,0,0,0,0,0,0,0,58,25,0,37,36,21
08/06/94,05:35:00,0,0,0,0,0,0,0,58,25,0,24,24,31
08/06/94,05:40:00,0,0,0,0,0,0,0,58,25,0,33,33,30
08/06/94,05:45:00,0,0,0,0,0,0,0,58,25,0,28,31,21
08/06/94,05:50:00,0,0,0,0,0,0,0,58,25,0,30,29,35
08/06/94,05:55:00,0,0,0,0,0,0,0,58,25,0,32,36,25
08/06/94,06:00:00,0,0,0,0,0,0,0,58,25,0,27,27,27
08/06/94,06:05:00,0,0,0,0,0,0,0,58,25,0,36,39,32
08/06/94,06:10:00,0,0,0,0,0,0,0,58,25,0,24,24,24
08/06/94,06:15:00,0,0,0,0,0,0,0,58,25,0,36,36,29
08/06/94,06:20:00,0,0,0,0,0,0,0,58,25,0,24,25,30
08/06/94,06:25:00,0,0,0,0,0,0,0,58,25,0,32,32,22
08/06/94,06:30:00,0,0,0,0,0,0,0,58,25,0,28,31,31
08/06/94,06:35:00,0,0,0,0,0,0,0,58,25,0,29,29,30
08/06/94,06:40:00,0,0,0,0,0,0,0,58,25,0,34,37,21
08/06/94,06:45:00,0,0,0,0,0,0,0,58,25,0,26,25,34
08/06/94,06:50:00,0,0,0,0,0,0,0,58,25,0,37,38,25
08/06/94,06:55:00,0,0,0,0,0,0,0,58,25,0,24,23,24
08/06/94,07:00:00,0,0,0,0,0,0,0,58,25,0,34,34,34
08/06/94,07:05:00,0,0,0,0,0,0,0,58,25,0,26,27,24
08/06/94,07:10:00,0,0,0,0,0,0,0,58,25,0,32,32,28
08/06/94,07:15:00,0,0,0,0,0,0,0,58,25,0,29,32,32
08/06/94,07:20:00,0,0,0,0,0,0,0,58,25,0,29,28,22
08/06/94,07:25:00,0,0,0,0,0,0,0,57,25,0,34,37,29
08/06/94,07:30:00,0,0,0,0,0,0,0,58,25,0,26,26,31
08/06/94,07:35:00,0,0,0,0,0,0,0,58,25,0,37,38,22
08/06/94,07:40:00,0,0,0,0,0,0,0,58,43,0,23,23,31
08/06/94,07:45:00,0,0,0,0,0,0,0,58,25,0,34,34,31
08/06/94,07:50:00,0,0,0,0,0,0,0,58,25,0,26,28,21
08/06/94,07:55:00,0,0,0,0,0,0,0,58,25,0,31,30,35
08/06/94,08:00:00,0,0,0,0,0,0,0,58,25,0,33,36,26
08/06/94,08:05:00,0,0,0,0,0,0,0,58,25,0,27,26,25
08/06/94,08:10:00,0,0,0,0,0,0,0,58,25,0,37,39,34
08/06/94,08:15:00,0,0,0,0,0,0,0,58,25,0,24,24,25
08/06/94,08:20:00,0,0,0,0,0,0,0,58,25,0,36,35,28
08/06/94,08:25:00,0,0,0,0,0,0,0,58,25,0,24,24,32
08/06/94,08:30:00,0,0,0,0,0,0,0,58,25,0,33,33,22
08/06/94,08:35:00,0,0,0,0,0,0,0,58,25,0,28,31,28
08/06/94,08:40:00,0,0,0,0,0,0,0,58,25,0,28,27,32
08/06/94,08:45:00,5,0,19,0,0,0,0,58,25,0,34,36,20
08/06/94,08:50:00,0,0,0,0,0,0,0,58,25,0,26,25,33
08/06/94,08:55:00,0,0,0,0,0,0,0,58,25,0,37,38,27
08/06/94,09:00:00,9,0,35,0,0,0,0,58,25,0,23,22,22
08/06/94,09:05:00,22,0,29,0,0,0,0,57,25,0,34,34,31
08/06/94,09:10:00,9,0,28,0,0,0,0,58,25,0,23,23,22
08/06/94,09:15:00,4,0,31,0,0,0,0,58,25,0,30,31,24
08/06/94,09:20:00,16,0,38,0,0,0,0,58,25,0,25,27,29
08/06/94,09:25:00,11,0,23,0,0,0,0,57,25,0,26,27,20
08/06/94,09:30:00,11,0,7,0,0,0,0,57,25,0,28,31,23
08/06/94,09:35:00,23,0,19,0,0,0,0,57,25,0,23,23,27
08/06/94,09:40:00,20,0,39,0,0,0,0,57,25,0,29,32,17
08/06/94,09:45:00,14,0,27,0,0,0,0,57,42,0,20,20,24
08/06/94,09:50:00,0,0,0,0,0,0,0,57,25,0,32,33,18
08/06/94,09:55:00,0,0,0,0,0,0,0,58,25,0,21,22,29
08/06/94,10:00:00,0,0,19,0,0,0,0,57,25,0,29,30,19
08/06/94,10:05:00,0,0,10,0,0,0,0,58,25,0,27,28,26
08/06/94,10:10:00,0,0,0,0,0,0,0,58,25,0,26,27,28
08/06/94,10:15:00,0,0,0,0,0,0,0,58,25,0,32,36,20
08/06/94,10:20:00,0,0,18,0,0,0,0,58,25,0,25,23,32
08/06/94,10:25:00,0,0,0,0,0,0,0,57,25,0,36,36,25
08/06/94,10:30:00,0,0,0,0,0,0,0,58,25,0,22,22,21
08/06/94,10:35:00,0,0,0,0,0,0,0,58,25,0,32,32,33
08/06/94,10:40:00,0,0,13,0,0,0,0,58,25,0,26,26,23
08/06/94,10:45:00,0,0,0,0,0,0,0,58,25,0,31,30,27
08/06/94,10:50:00,0,0,0,0,0,0,0,58,25,0,30,33,31
08/06/94,10:55:00,0,0,0,0,0,0,0,58,25,0,27,26,23
08/06/94,11:00:00,0,0,14,0,0,0,0,58,25,0,35,38,28
08/06/94,11:05:00,0,0,0,0,0,0,0,58,25,0,24,24,30
08/06/94,11:10:00,0,0,0,0,0,0,0,58,25,0,37,36,21
08/06/94,11:15:00,0,0,0,0,0,0,0,58,25,0,23,25,33
08/06/94,11:20:00,0,0,0,0,0,0,0,58,25,0,32,32,27
08/06/94,11:25:00,0,0,0,0,0,0,0,58,25,0,29,31,22
08/06/94,11:30:00,0,0,0,0,0,0,0,57,25,0,30,29,34
08/06/94,11:35:00,0,0,0,0,0,0,0,58,25,0,34,38,23
08/06/94,11:40:00,0,0,0,0,0,0,0,58,25,0,26,25,28
08/06/94,11:45:00,0,0,0,0,0,0,0,58,25,0,37,38,32
08/06/94,11:50:00,0,0,0,0,0,0,0,58,25,0,24,23,23
08/06/94,11:55:00,0,0,0,0,0,0,0,58,25,0,35,35,31
08/06/94,12:00:00,0,0,0,0,0,0,0,58,25,0,24,25,28
08/06/94,12:05:00,0,0,0,0,0,0,0,58,25,0,32,32,22
08/06/94,12:10:00,0,0,0,0,0,0,0,58,25,0,30,31,32
08/06/94,12:15:00,0,0,0,0,0,0,0,58,25,0,28,27,27
08/06/94,12:20:00,0,0,0,0,0,0,0,58,25,0,34,36,23
08/06/94,12:25:00,0,0,0,0,0,0,0,58,25,0,26,25,34
08/06/94,12:30:00,0,0,0,0,0,0,0,58,25,0,37,38,23
08/06/94,12:35:00,0,0,0,0,0,0,0,58,25,0,24,24,29
08/06/94,12:40:00,0,0,0,0,0,0,0,58,25,0,34,34,32
08/06/94,12:45:00,0,0,0,0,0,0,0,58,25,0,25,27,22
08/06/94,12:50:00,0,0,0,0,0,0,0,58,25,0,31,32,32
08/06/94,12:55:00,0,0,0,0,0,0,0,58,25,0,29,33,27
08/06/94,13:00:00,0,0,0,0,0,0,0,58,25,0,29,28,23
08/06/94,13:05:00,0,0,0,0,0,0,0,58,25,0,34,37,32
08/06/94,13:10:00,0,0,0,0,0,0,0,58,25,0,26,26,28
08/06/94,13:15:00,0,0,0,0,0,0,0,58,25,0,36,37,23
08/06/94,13:20:00,0,0,0,0,0,0,0,58,25,0,25,24,34
08/06/94,13:25:00,0,0,0,0,0,0,0,58,25,0,36,34,25
08/06/94,13:30:00,0,0,0,0,0,0,0,58,25,0,25,28,24
08/06/94,13:35:00,0,0,0,0,0,0,0,58,25,0,31,30,34
08/06/94,13:40:00,2,0,32,0,0,0,0,58,25,0,30,33,22
08/06/94,13:45:00,2,0,3,0,0,0,0,58,25,0,28,28,30
08/06/94,13:50:00,7,0,6,0,0,0,0,57,25,0,34,37,30
08/06/94,13:55:00,3,0,7,0,0,0,0,58,25,0,25,25,22
08/06/94,14:00:00,0,0,16,0,0,0,0,58,25,0,36,37,28
08/06/94,14:05:00,2,0,18,0,0,0,0,58,25,0,23,23,29
08/06/94,14:10:00,0,0,0,0,0,0,0,57,25,0,35,35,21
08/06/94,14:15:00,0,0,14,0,0,0,0,58,25,0,24,25,32
08/06/94,14:20:00,0,0,0,0,0,0,0,58,25,0,31,31,27
08/06/94,14:25:00,10,0,8,0,0,0,0,58,25,0,29,31,22
08/06/94,14:30:00,2,0,5,0,0,0,0,58,25,0,27,27,32
08/06/94,14:35:00,6,0,10,0,0,0,0,57,25,0,33,35,22
08/06/94,14:40:00,0,0,18,0,0,0,0,58,25,0,25,25,26
08/06/94,14:45:00,0,0,0,0,0,0,0,57,25,0,35,37,31
08/06/94,14:50:00,11,0,11,0,0,0,0,57,25,0,22,22,21
08/06/94,14:55:00,0,0,0,0,0,0,0,57,25,0,34,35,27
08/06/94,15:00:00,5,0,18,0,0,0,0,58,25,0,23,23,27
08/06/94,15:05:00,0,0,18,0,0,0,0,58,25,0,32,33,20
08/06/94,15:10:00,9,0,22,0,0,0,0,58,25,0,27,27,31
08/06/94,15:15:00,8,0,18,0,0,0,0,57,25,0,28,29,27
08/06/94,15:20:00,49,42,54,0,0,0,0,55,24,0,25,25,19
08/06/94,15:25:00,49,37,48,0,0,0,0,55,24,0,17,16,13
08/06/94,15:30:00,63,13,21,0,0,0,0,56,24,0,13,13,10
08/06/94,15:35:00,45,0,16,0,0,0,0,56,24,0,12,11,9
08/06/94,15:40:00,64,7,19,0,0,0,0,56,24,0,10,10,8
08/06/94,15:45:00,49,1,6,0,0,0,0,56,24,0,10,8,8
08/06/94,15:50:00,42,0,22,0,0,0,0,56,24,0,9,8,7
08/06/94,15:55:00,61,3,22,0,0,0,0,56,24,0,8,7,7
08/06/94,16:00:00,66,7,22,0,0,0,0,56,24,0,8,7,7
08/06/94,16:05:00,60,2,21,0,0,0,0,56,24,0,8,7,7
08/06/94,16:10:00,51,2,11,0,0,0,0,56,24,0,8,7,7
08/06/94,16:15:00,70,9,18,0,0,0,0,56,24,0,7,7,6
08/06/94,16:20:00,33,1,0,0,0,0,0,56,24,0,7,7,6
08/06/94,16:25:00,9,26,0,0,0,0,0,57,24,0,9,14,7
08/06/94,16:30:00,15,22,0,0,0,0,0,57,24,0,18,24,7
08/06/94,16:35:00,0,0,0,0,0,0,0,56,25,0,21,16,21
08/06/94,16:40:00,0,0,0,0,0,0,0,57,25,0,17,22,16
08/06/94,16:45:00,18,23,36,0,0,0,0,57,25,0,27,29,18
08/06/94,16:50:00,56,46,38,0,0,0,0,55,24,0,21,17,17
08/06/94,16:55:00,61,35,49,0,0,0,0,54,24,0,15,12,12
08/06/94,17:00:00,39,30,29,0,0,0,0,55,24,0,12,10,10
08/06/94,17:05:00,39,34,41,0,0,0,0,55,24,0,10,8,9
08/06/94,17:10:00,44,0,15,0,0,0,0,56,24,0,9,7,8
08/06/94,17:15:00,23,2,1,0,0,0,0,56,24,0,8,7,7
08/06/94,17:20:00,50,12,0,0,0,0,0,56,24,0,8,6,7
08/06/94,17:25:00,49,27,0,0,0,0,0,56,24,0,7,12,7
08/06/94,17:30:00,71,6,0,0,0,0,0,57,24,0,7,20,6
08/06/94,17:35:00,30,0,19,0,0,0,0,57,24,0,7,13,6
08/06/94,17:40:00,52,1,10,0,0,0,0,57,24,0,13,10,6
08/06/94,17:45:00,53,7,0,0,0,0,0,57,24,0,17,8,6
08/06/94,17:50:00,47,2,10,0,0,0,0,56,24,0,13,15,6
08/06/94,17:55:00,67,0,12,0,0,0,0,56,24,0,10,18,7
08/06/94,18:00:00,45,4,5,0,0,0,0,57,24,0,8,12,6
08/06/94,18:05:00,55,7,1,0,0,0,0,56,25,0,9,9,6
08/06/94,18:10:00,59,14,14,0,0,0,0,57,25,0,17,17,6
08/06/94,18:15:00,40,2,0,0,0,0,0,57,24,0,15,18,5
08/06/94,18:20:00,48,4,5,0,0,0,0,57,35,0,11,13,5
08/06/94,18:25:00,55,4,12,0,0,0,0,57,24,0,9,10,5
08/06/94,18:30:00,55,16,4,0,0,0,0,56,24,0,12,17,5
08/06/94,18:35:00,28,0,1,0,0,0,0,57,24,0,18,20,5
08/06/94,18:40:00,43,3,13,0,0,0,0,57,24,0,13,13,5
08/06/94,18:45:00,76,22,0,0,0,0,0,57,24,0,10,10,5
08/06/94,18:50:00,50,14,0,0,0,0,0,57,24,0,8,11,5
08/06/94,18:55:00,51,10,2,0,0,0,0,56,24,0,7,20,5
08/06/94,19:00:00,52,17,12,0,0,0,0,56,24,0,6,14,6
08/06/94,19:05:00,47,4,6,0,0,0,0,56,36,0,6,11,6
08/06/94,19:10:00,20,3,3,0,0,0,0,57,24,0,9,11,6
08/06/94,19:15:00,1,3,22,0,0,0,0,57,25,0,20,22,17
08/06/94,19:20:00,16,5,24,0,0,0,0,57,25,0,18,20,15
08/06/94,19:25:00,30,14,14,0,0,0,0,57,25,0,13,14,11
08/06/94,19:30:00,4,12,28,0,0,0,0,58,25,0,19,23,13
08/06/94,19:35:00,10,8,27,0,0,0,0,57,25,0,21,21,18
08/06/94,19:40:00,26,12,4,0,0,0,0,57,25,0,15,16,13
08/06/94,19:45:00,14,10,5,0,0,0,0,57,25,0,21,26,14
08/06/94,19:50:00,0,17,9,0,0,0,0,57,25,0,22,21,18
08/06/94,19:55:00,0,7,5,0,0,0,0,58,25,0,16,18,12
08/06/94,20:00:00,1,18,0,0,0,0,0,57,25,0,23,28,20
08/06/94,20:05:00,0,16,3,0,0,0,0,57,25,0,20,20,16
08/06/94,20:10:00,7,14,0,0,0,0,0,58,25,0,18,20,12
08/06/94,20:15:00,0,2,0,0,0,0,0,58,25,0,26,29,21
08/06/94,20:20:00,0,10,0,0,0,0,0,58,25,0,19,19,14
08/06/94,20:25:00,5,22,0,0,0,0,0,58,25,0,19,22,16
08/06/94,20:30:00,14,7,17,0,0,0,0,57,25,0,25,28,19
08/06/94,20:35:00,7,18,1,0,0,0,0,57,25,0,17,17,13
08/06/94,20:40:00,12,13,12,0,0,0,0,58,25,0,20,24,21
08/06/94,20:45:00,14,14,1,0,0,0,0,58,25,0,23,25,17
08/06/94,20:50:00,12,14,5,0,0,0,0,58,25,0,16,19,13
08/06/94,20:55:00,20,18,17,0,0,0,0,57,25,0,23,29,22
08/06/94,21:00:00,17,17,26,0,0,0,0,57,25,0,20,19,14
08/06/94,21:05:00,17,7,2,0,0,0,0,58,25,0,14,20,11
08/06/94,21:10:00,10,18,0,0,0,0,0,58,25,0,21,28,21
08/06/94,21:15:00,1,15,0,0,0,0,0,57,25,0,21,17,15
08/06/94,21:20:00,5,25,10,0,0,0,0,57,25,0,16,20,13
08/06/94,21:25:00,21,16,1,0,0,0,0,57,25,0,24,27,20
08/06/94,21:30:00,41,24,3,0,0,0,0,57,25,0,17,16,13
08/06/94,21:35:00,15,18,0,0,0,0,0,57,25,0,13,17,10
08/06/94,21:40:00,11,23,1,0,0,0,0,58,25,0,21,26,9
08/06/94,21:45:00,3,10,5,0,0,0,0,57,25,0,19,17,20
08/06/94,21:50:00,1,14,15,0,0,0,0,57,25,0,13,18,15
08/06/94,21:55:00,25,25,29,0,0,0,0,57,25,0,20,25,11
08/06/94,22:00:00,30,7,28,0,0,0,0,57,25,0,16,16,9
08/06/94,22:05:00,30,17,27,0,0,0,0,56,25,0,12,12,8
08/06/94,22:10:00,17,5,23,0,0,0,0,57,25,0,10,10,7
08/06/94,22:15:00,25,13,22,0,0,0,0,56,25,0,9,16,7
08/06/94,22:20:00,41,19,31,0,0,0,0,57,25,0,12,23,8
08/06/94,22:25:00,38,15,25,0,0,0,0,56,24,0,18,15,14
08/06/94,22:30:00,30,14,26,0,0,0,0,57,24,0,14,11,11
08/06/94,22:35:00,33,20,10,0,0,0,0,57,24,0,11,9,9
08/06/94,22:40:00,2,16,25,0,0,0,0,57,25,0,11,13,8
08/06/94,22:45:00,5,9,17,0,0,0,0,57,25,0,20,26,10
08/06/94,22:50:00,11,14,23,0,0,0,0,57,25,0,20,18,17
08/06/94,22:55:00,3,13,6,0,0,0,0,57,25,0,14,17,12
08/06/94,23:00:00,27,20,5,0,0,0,0,58,25,0,21,27,13
08/06/94,23:05:00,4,8,15,0,0,0,0,57,25,0,20,20,18
08/06/94,23:10:00,0,20,0,0,0,0,0,57,25,0,16,19,12
08/06/94,23:15:00,14,20,13,0,0,0,0,57,25,0,24,28,20
08/06/94,23:20:00,8,13,6,0,0,0,0,58,25,0,18,19,16
08/06/94,23:25:00,4,3,3,0,0,0,0,58,25,0,18,21,12
08/06/94,23:30:00,18,6,14,0,0,0,0,58,25,0,25,26,21
08/06/94,23:35:00,9,19,16,0,0,0,0,57,25,0,17,17,14
08/06/94,23:40:00,7,20,3,0,0,0,0,58,25,0,20,26,18
08/06/94,23:45:00,12,12,0,0,0,0,0,57,25,0,23,22,17
08/06/94,23:50:00,11,14,7,0,0,0,0,58,25,0,17,17,12
08/06/94,23:55:00,0,10,7,0,0,0,0,57,25,0,25,27,22
08/07/94,00:00:00,0,24,13,0,0,0,0,57,25,0,19,20,15
